Regional Weather Roundup
Issued by NWS

Home | Current Version | Previous Version | Graphics & Text | Print | Product List | Glossary On
Versions: 1 2 3 4 5 6 7 8 9 10 11 12 13 14 15 16 17 18 19 20 21 22 23 24 25 26 27 28 29 30 31 32 33 34 35 36 37 38 39 40 41 42 43 44 45 46 47 48 49 50
000
ASUS43 KOAX 251010
RWRNE

WEATHER ROUNDUP FOR NEBRASKA
NATIONAL WEATHER SERVICE OMAHA NE
400 AM CST TUE NOV 25 2014

NOTES: SATELLITE DATA IS BEING USED TO AUGMENT CLOUD COVER ABOVE
       12000 FEET.
       "FAIR" INDICATES FEW OR NO CLOUDS BELOW 12,000 FEET WITH NO
       SIGNIFICANT WEATHER AND/OR OBSTRUCTIONS TO VISIBILITY.

  * THESE STATIONS DO NOT REPORT WEATHER SUCH AS RAIN...SNOW OR FOG.

NEZ001>004-019>022-054>056-251100-
NEBRASKA PANHANDLE

CITY           SKY/WX    TMP DP  RH WIND       PRES   REMARKS
SCOTTSBLUFF    PTCLDY    19  14  81 N5        30.09F WCI  12
ALLIANCE       CLEAR     13  11  92 W8        30.06F WCI   2
CHADRON        CLEAR     25  19  78 SW10      30.03F WCI  15
KIMBALL        PTCLDY    21  13  72 W9        30.07F WCI  10
SIDNEY         CLEAR     20  13  74 W9        30.11F WCI   9
$$

NEZ057>060-069>072-079>082-251100-
SOUTHWEST NEBRASKA

CITY           SKY/WX    TMP DP  RH WIND       PRES   REMARKS
NORTH PLATTE   CLEAR     14  12  92 W6        30.12F WCI   5
IMPERIAL       CLEAR     21  15  78 W10       30.14F WCI  10
LEXINGTON      CLEAR     16  14  90 W5        30.13F WCI   9
MCCOOK         CLEAR     19  17  92 W8        30.16F WCI   9
OGALLALA       CLEAR     18  16  91 W8        30.12F WCI   8
$$

NEZ005>010-023>029-035>040-094-251100-
NORTH CENTRAL NEBRASKA

CITY           SKY/WX    TMP DP  RH WIND       PRES   REMARKS
VALENTINE      CLEAR     21  17  84 SW7       30.05F WCI  12
AINSWORTH      CLEAR     26  23  87 W7        30.05S WCI  19
BROKEN BOW     CLEAR     23  18  81 CALM      30.09F
O`NEILL        MOCLDY    21  19  89 SW5       30.07F WCI  15
ORD            CLOUDY    19  15  84 CALM      30.10F
THEDFORD       CLEAR     24  21  89 SW7       30.07F WCI  16
$$

NEZ041-046>049-061>064-073>077-083>087-251100-
SOUTH CENTRAL NEBRASKA

CITY           SKY/WX    TMP DP  RH WIND       PRES   REMARKS
GRAND ISLAND   CLEAR     22  17  81 W10       30.13F WCI  11
AURORA         CLEAR     19  15  82 W6        30.11F WCI  11
HASTINGS       CLEAR     20  15  81 SW6       30.13F WCI  12
HEBRON         CLEAR     19  13  77 W5        30.17F WCI  12
HOLDREGE       CLEAR     24  20  86 W8        30.13F WCI  15
KEARNEY *      CLEAR     23  19  86 W9        30.14S WCI  13
YORK           CLEAR     18  14  86 W6        30.13F WCI   9
$$

NEZ011>018-030>034-042>045-251100-
NORTHEAST NEBRASKA

CITY           SKY/WX    TMP DP  RH WIND       PRES   REMARKS
NORFOLK        CLEAR     15  10  80 W5        30.09F WCI   8
ALBION         CLEAR     15  10  83 CALM      30.10F
BLAIR          CLEAR     20   8  59 W6        30.12S WCI  13
COLUMBUS *     CLEAR     14   5  67 CALM      30.13F
FREMONT        CLEAR     16  11  78 W5        30.14S WCI   9
TEKAMAH        CLEAR     18   7  62 W6        30.14R WCI  10
WAYNE          CLEAR     17   9  70 W6        30.11S WCI   8
$$

NEZ050>053-065>068-078-088>093-251100-
SOUTHEAST NEBRASKA

CITY           SKY/WX    TMP DP  RH WIND       PRES   REMARKS
LINCOLN        CLEAR     20   9  62 W5        30.17F WCI  13
OMAHA EPPLEY   CLEAR     21   7  54 W8        30.16R WCI  11
BEATRICE       CLEAR     17  10  76 W7        30.17R WCI   7
FALLS CITY     CLEAR     20  10  65 W8        30.16R WCI  10
NEBRASKA CITY  CLEAR     19   8  61 W8        30.14S WCI   9
PLATTSMOUTH    CLEAR     20   8  58 W9        30.13S WCI   9
$$

NEZ044-045-051>053-067-251100-
OMAHA AREA

CITY           SKY/WX    TMP DP  RH WIND       PRES   REMARKS
OMAHA EPPLEY   CLEAR     21   7  54 W8        30.16R WCI  11
BLAIR          CLEAR     20   8  59 W6        30.12S WCI  13
FREMONT        CLEAR     16  11  78 W5        30.14S WCI   9
MILLARD        CLEAR     22   9  58 NW5       30.15S WCI  16
OFFUTT AFB     CLEAR     19   8  63 NW6       30.14R WCI  10
PLATTSMOUTH    CLEAR     20   8  58 W9        30.13S WCI   9
WAHOO          FAIR      20  11  68 NW6       30.15F WCI  12
$$


USA.gov is the U.S. government's official web portal to all federal, state and local government web resources and services.